Location: Burland Observatory
(39.4088°N, 105.4217°W)
Time: 08:36:07
(UTC-07:00)

Vanguard 3 - Pass Details

Date: 08 December 2019
Orbit: 508 x 3263 km, 33.3° (Epoch: 19 January)

Event Time Altitude Azimuth Distance (km) Brightness Sun altitude
Rises 07:45:51 0° 226° (SW) 3,784 10.5 5.2°
Reaches altitude 10° 07:48:11 10° 219° (SW) 3,105 10.1 5.5°
Maximum altitude 07:55:40 43° 150° (SSE) 2,254 10.3 6.7°
Drops below altitude 10° 08:08:24 10° 86° (E) 5,219 12.1 8.6°
Sets 08:13:37 0° 81° (E) 6,614 12.5 9.4°
